Helicity
56 34 22 31 18 25 31 9 10 -12 -3 14 10 15 18 13 7 211 174 94 108 66 56 33 41 38 19 11 29 39 60 46 46 47 52 108 140 131 126 87 100 95 61 75 70 94 81 252 326 248 152 101 88 44
29 27 50 28 7 9 10 20 -13 15 4 8 16 -1 26 8 -25 157 128 87 83 60 31 32 34 42 41 46 38 17 18 37 16 11 33 55 73 66 103 141 74 92 70 84 112 130 150 324 266 188 46 51 32 11
32 33 29 18 19 6 22 -3 3 6 34 12 -4 23 27 15 -12 91 115 104 97 48 31 42 37 61 53 43 56 29 16 4 11 5 -4 1 8 -0 8 79 82 66 37 41 89 35 -2 5 93 78 -6 -21 4 59
16 35 25 26 9 9 24 5 16 8 -7 -0 7 46 13 24 66 118 114 112 108 41 42 22 28 28 10 38 57 85 44 37 32 26 18 19 9 -5 -3 28 34 38 36 37 63 69 81 60 31 2 21 19 26 69
9 9 13 12 12 21 -2 1 -8 -5 -11 35 30 10 -5 21 94 99 83 78 53 39 19 35 65 11 13 29 32 58 67 62 57 47 47 18 37 29 15 23 35 23 16 19 20 26 43 14 -17 4 4 66 72 76
19 5 9 16 10 -0 -5 5 21 34 22 50 28 15 -9 -4 102 68 55 28 62 52 44 30 25 20 38 46 54 48 67 78 83 73 50 59 67 43 28 28 27 21 -21 -53 3 36 47 27 22 21 29 90 149 191
44 36 14 -7 -2 2 8 11 34 -4 74 37 41 77 119 138 133 70 40 11 52 86 45 46 45 22 52 62 75 88 101 92 102 83 102 125 141 103 145 108 98 72 39 40 49 60 55 37 38 46 17 68 143 179
38 6 31 27 14 26 23 11 4 -0 48 61 66 51 22 31 38 57 34 23 105 93 63 50 35 46 50 55 59 61 85 111 108 113 169 180 139 183 216 220 132 137 137 68 62 22 16 37 32 31 44 35 -1 5
6 15 13 17 9 14 12 28 41 55 55 58 44 29 71 79 54 32 39 39 28 41 49 48 58 53 40 50 52 65 93 85 88 -55 13 -0 88 195 240 82 58 102 168 154 144 85 81 45 52 71 62 -9 -24 38
61 65 57 40 22 39 56 58 57 50 35 29 23 30 39 48 23 13 39 34 40 44 31 -0 28 29 61 70 62 60 -83 -132 -143 -114 -63 32 113 109 113 91 83 41 44 113 71 113 90 71 44 75 9 -5 36 122
29 20 26 26 19 17 12 21 15 -14 12 -7 -41 -26 -6 23 25 30 20 24 19 22 13 27 47 51 -21 -48 -23 -10 37 4 30 -26 -62 86 263 219 110 106 -21 -75 -11 24 43 70 103 86 79 44 103 143 170 130
19 34 31 11 -0 -6 -23 19 33 -13 -16 -12 2 6 6 12 24 29 20 23 20 16 17 29 -12 -19 -9 -20 -20 26 60 14 86 56 144 182 185 68 82 45 28 -12 -22 -9 34 79 61 51 109 157 185 168 149 130
41 44 59 59 70 58 37 30 1 30 12 -1 -7 -1 -7 -0 -15 -24 -11 -10 -22 -12 -6 -0 -15 -42 -34 -38 2 21 95 170 69 93 28 110 262 226 132 88 22 10 -1 94 165 108 71 105 143 131 127 88 86 72
40 46 21 15 28 33 36 41 9 12 -9 -5 10 20 14 27 28 32 27 13 10 7 -4 -17 -13 -8 2 5 -7 67 64 62 47 20 32 37 141 138 98 47 16 48 100 109 94 62 61 108 149 121 105 61 67 35
5 15 11 15 29 10 3 4 -6 1 16 34 9 24 24 6 -1 5 1 7 23 31 34 32 40 22 14 33 23 20 27 62 30 -21 3 18 66 66 60 41 -11 -4 3 -12 -31 1 43 80 237 109 71 68 66 36
33 20 16 12 26 21 6 4 37 62 77 69 33 -3 -12 -26 -9 -4 -0 33 11 -2 -15 -8 8 25 37 -7 -10 -7 6 -12 2 -5 -2 12 14 10 18 25 36 -0 -28 -13 -32 11 -20 -34 25 18 14 21 33 50
24 37 32 54 51 44 36 54 56 59 40 31 1 66 17 -44 -36 -22 -20 -8 -4 -1 -4 -2 1 2 -17 -4 -10 11 10 47 37 -34 -31 -13 -5 5 3 -4 -9 -19 -9 22 18 17 -1 -18 -4 22 38 38 49 35
40 51 42 34 33 35 48 64 79 67 58 65 42 5 53 35 17 16 10 19 30 -2 12 12 15 18 19 24 29 53 37 22 38 20 -1 -9 -6 -13 9 8 7 22 27 37 62 62 46 27 44 59 53 47 39 27
50 48 17 19 33 35 30 49 63 70 59 56 55 45 30 32 41 51 38 33 44 46 40 40 42 40 52 69 43 13 -3 -14 -9 -11 1 14 23 22 36 45 37 43 55 52 54 63 62 62 59 57 51 51 44 42
13 32 39 47 69 59 39 44 51 33 26 29 43 52 41 31 45 55 60 71 87 66 59 54 62 77 68 63 57 55 50 38 37 48 43 34 33 29 32 27 20 22 33 36 21 46 69 70 55 47 59 56 59 44
52 57 33 64 66 80 79 70 55 41 20 28 31 47 49 81 68 67 79 128 108 75 104 83 88 91 87 82 84 32 55 55 51 41 52 47 29 30 36 33 31 32 21 14 16 43 69 69 57 49 53 54 44 22
100 48 47 56 62 70 50 56 53 52 42 53 41 34 40 59 60 53 77 96 126 125 114 90 79 59 70 67 51 63 59 41 37 39 46 43 39 23 21 25 25 46 42 39 35 23 51 58 79 87 85 75 86 67
94 91 71 60 65 47 33 34 39 32 28 31 49 41 45 43 22 86 129 134 74 81 75 76 75 74 66 51 47 43 36 30 24 21 8 7 12 28 28 36 23 19 32 48 58 58 57 91 93 96 94 93 89 91
90 72 76 80 73 78 55 35 33 10 28 90 32 31 23 6 16 70 59 76 64 54 78 89 86 82 82 95 90 70 70 45 26 23 11 -0 7 29 59 66 69 66 44 35 39 52 71 77 71 57 47 47 56 65
137 66 134 114 123 115 118 87 70 74 105 66 -12 -25 -4 -0 4 45 62 70 90 88 93 98 88 76 71 67 73 72 62 52 39 34 32 14 9 61 96 85 86 89 78 47 47 54 55 63 66 62 47 46 43 48
158 128 170 173 157 159 148 139 139 146 90 44 59 60 57 60 31 58 100 113 89 77 72 72 75 67 59 58 52 56 87 84 46 44 53 43 38 56 86 98 104 100 75 52 48 47 57 59 58 76 80 80 54 36
189 188 199 161 130 148 171 149 120 148 151 161 126 110 115 105 154 161 144 189 143 114 77 49 42 43 44 47 53 52 48 42 27 21 53 82 76 76 67 74 82 66 58 50 42 41 52 67 66 69 73 64 60 61
200 212 204 142 163 172 195 167 163 177 165 113 96 93 130 141 153 126 88 72 60 47 47 50 58 60 54 57 59 55 43 64 43 45 38 43 43 35 65 62 53 56 34 27 23 25 26 31 40 47 48 48 52 57
206 195 188 156 153 154 158 179 186 158 125 65 62 23 46 58 48 48 30 41 31 36 60 68 77 66 71 63 64 60 57 51 55 55 50 18 16 34 68 56 42 44 38 27 23 10 1 5 11 17 20 27 40 44
166 185 207 196 200 179 145 149 106 64 61 81 78 73 70 48 55 62 43 44 55 43 33 35 41 52 61 68 70 60 35 16 -5 -11 -13 -12 -17 10 23 30 34 38 34 23 18 22 21 17 18 25 34 40 45 47
181 208 205 190 182 178 150 83 82 94 84 67 64 98 142 113 93 100 99 76 59 54 63 68 61 67 69 86 87 78 77 42 43 19 -1 -13 -19 -19 -14 -9 -4 13 14 17 15 7 9 16 21 23 31 41 52 54
194 199 219 198 162 135 101 116 120 128 103 92 77 86 159 148 126 91 89 79 82 96 83 71 70 65 61 52 58 63 74 76 67 58 54 37 21 7 -8 -26 -33 -26 -11 3 5 -3 -6 3 11 17 25 41 53 61
190 192 192 177 147 142 131 118 140 143 121 113 85 99 152 158 125 82 70 73 39 32 34 37 40 49 49 32 27 51 64 60 60 54 56 43 29 20 -4 -14 -21 -26 -15 -0 13 19 14 12 13 19 26 37 50 63
Wind_Speed
66 58 55 50 45 30 8 25 53 49 5 9 23 58 70 71 68 37 29 22 25 32 34 23 23 30 31 33 33 35 35 36 37 40 40 40 42 44 47 46 50 50 61 63 62 64 61 35 28 41 36 33 31 32
68 56 43 35 28 22 38 46 36 46 8 7 58 65 71 75 69 30 21 13 19 28 33 31 30 19 20 16 28 33 35 39 37 39 42 44 48 43 46 47 42 43 42 47 41 42 36 34 36 37 32 30 29 30
64 52 40 32 30 30 39 37 32 6 20 53 55 66 65 64 65 26 18 7 19 32 42 38 36 42 35 8 13 33 35 36 37 37 42 42 46 44 44 46 50 48 43 47 47 41 37 30 35 37 41 37 34 28
58 43 37 33 39 10 26 22 26 36 54 49 60 61 54 42 11 12 13 15 15 21 30 32 32 35 30 19 4 2 22 33 36 40 46 47 49 46 52 51 55 55 53 51 56 48 45 38 46 47 48 35 27 30
53 48 46 41 37 30 31 45 49 52 39 44 56 55 54 36 6 6 12 20 20 21 28 31 43 34 32 20 16 12 15 28 36 41 44 49 48 52 56 60 65 48 51 57 60 55 52 56 53 50 47 39 35 29
54 54 48 44 47 51 48 48 36 41 55 36 35 30 19 17 12 14 25 31 24 30 31 30 35 35 35 27 20 15 18 26 30 35 41 44 45 51 59 67 66 57 58 54 64 61 62 62 55 52 39 33 41 43
58 60 65 60 54 54 48 46 28 50 41 26 10 11 7 6 13 24 27 26 10 25 32 37 39 35 36 34 33 31 27 31 32 36 36 39 46 46 58 79 89 72 70 66 60 59 65 54 49 47 36 39 33 46
23 50 62 62 62 57 51 54 62 62 46 41 30 14 14 16 19 25 29 22 16 23 29 32 35 38 37 33 32 33 32 35 30 29 38 42 43 37 49 65 74 71 73 79 84 76 77 66 56 54 51 41 31 29
64 64 65 64 63 59 66 64 62 58 53 48 39 24 18 25 26 28 22 24 22 24 25 30 35 36 38 35 36 37 35 36 32 40 35 15 19 23 31 30 22 46 50 64 60 58 60 59 55 55 57 28 29 20
65 63 57 55 55 52 53 54 51 50 46 29 23 19 23 26 27 30 31 30 31 34 30 28 28 33 39 41 41 41 48 44 42 35 20 15 19 30 31 33 36 32 24 66 61 58 58 58 54 58 70 52 41 28
62 62 61 58 57 55 53 51 40 31 23 26 31 30 32 26 28 29 29 29 31 31 25 27 24 25 28 25 24 27 27 27 26 23 19 13 6 4 10 16 22 31 40 56 68 60 52 53 57 52 40 29 19 15
68 45 39 36 40 38 39 16 23 29 37 33 34 33 29 32 32 30 30 31 30 31 25 22 31 32 27 24 26 28 27 27 24 19 19 13 4 35 40 34 19 32 48 51 59 43 43 41 36 26 20 12 12 16
18 8 6 5 10 16 16 17 23 39 29 26 27 29 28 27 29 34 34 34 34 34 35 34 31 29 28 27 28 29 27 25 20 23 17 10 23 23 21 29 37 32 39 11 19 28 32 30 23 16 18 14 15 22
27 22 18 22 22 19 20 22 18 29 25 24 25 26 29 31 31 34 33 33 33 34 33 35 34 32 31 30 30 29 28 23 22 18 17 11 15 23 13 35 49 37 32 11 15 23 23 29 23 20 16 16 16 25
44 43 41 42 43 40 38 36 33 15 22 22 26 27 29 30 30 30 31 33 32 31 31 31 33 35 33 33 31 29 27 27 27 24 17 17 19 17 11 26 24 36 30 9 18 21 18 18 21 16 19 22 24 28
51 45 37 50 53 52 50 48 39 33 26 18 27 30 30 31 34 33 33 34 35 34 32 33 32 33 34 33 33 34 30 26 28 25 24 23 28 37 29 3 18 13 18 21 23 25 22 26 26 23 23 26 28 31
43 31 50 59 59 58 49 40 41 35 35 36 43 27 24 42 40 40 40 39 37 39 38 36 34 34 35 32 35 31 33 35 31 38 43 44 42 38 37 38 35 29 35 32 30 27 26 27 29 28 33 35 35 34
23 30 60 61 59 52 41 35 34 31 28 34 50 51 38 43 47 47 43 37 33 39 39 41 42 40 39 39 34 35 38 42 42 46 49 51 53 55 54 56 55 52 48 42 34 29 27 28 30 34 37 37 40 43
19 21 26 47 45 45 43 39 33 35 34 37 34 41 45 47 45 47 40 34 30 37 39 40 43 41 40 37 42 44 43 43 45 45 49 53 57 59 59 59 59 57 56 49 40 36 33 35 37 36 36 39 45 48
18 28 38 40 35 37 39 37 35 38 38 37 37 38 39 43 44 43 44 35 32 37 38 40 41 41 41 40 42 42 42 42 47 52 54 56 59 60 59 59 58 58 53 51 42 29 25 26 25 26 28 32 34 39
28 28 30 32 31 26 30 35 35 35 44 41 42 44 46 45 46 44 41 28 33 38 37 37 38 39 37 38 40 42 45 45 47 48 52 60 61 59 59 59 58 55 52 51 49 19 12 11 14 16 15 18 15 13
32 32 28 30 24 26 26 25 29 40 40 44 52 48 48 48 46 41 29 29 31 34 35 36 39 36 37 40 43 45 46 47 49 52 55 56 57 59 59 58 56 53 49 48 47 41 21 20 28 27 28 28 22 19
34 34 29 28 27 26 26 31 28 27 36 45 51 49 46 45 46 33 32 30 28 34 37 38 39 39 40 42 45 46 48 51 55 57 57 58 57 52 56 55 52 49 46 45 43 39 37 36 36 36 36 33 29 25
39 37 37 36 34 27 31 30 35 35 40 42 47 49 46 45 43 38 36 35 35 37 40 42 42 42 44 47 50 52 53 53 56 58 57 58 58 56 55 51 43 44 44 44 44 43 43 44 44 42 40 38 33 28
43 43 41 39 36 34 33 34 33 37 37 45 49 51 48 46 46 45 42 40 40 42 44 45 45 45 46 48 49 51 51 54 56 58 59 56 54 52 49 43 40 44 46 46 45 44 44 44 44 44 42 40 39 33
48 45 44 43 39 38 36 35 34 39 47 46 43 50 48 52 51 48 44 42 42 44 46 46 47 46 45 46 47 49 52 53 51 51 51 50 47 45 43 42 42 44 46 45 46 47 48 47 47 47 46 46 44 40
47 46 42 39 39 36 35 33 35 38 39 44 51 52 50 45 44 41 39 43 43 44 44 43 42 41 41 41 43 45 48 48 46 43 42 42 43 44 44 44 46 48 49 48 48 48 49 50 50 51 51 49 47 46
43 43 49 47 42 38 39 38 36 37 40 40 47 36 42 36 37 42 42 45 44 40 39 39 39 38 38 40 43 46 47 48 45 43 39 44 46 47 50 50 50 52 51 51 51 51 51 52 53 53 53 52 52 50
44 44 47 46 44 40 36 37 37 35 35 39 33 29 32 35 42 44 41 40 38 37 37 37 39 39 39 39 42 44 46 47 47 47 48 50 51 52 55 55 55 55 55 54 53 53 54 55 55 54 53 53 52 48
43 41 46 45 47 44 36 32 34 33 27 23 22 22 27 30 39 38 37 38 37 36 37 38 39 39 41 42 43 44 46 47 47 48 50 52 54 56 56 56 56 56 55 54 54 55 53 52 51 48 46 44 45 45
41 42 44 42 43 38 32 33 31 31 30 26 20 12 14 19 25 35 38 39 38 37 37 39 39 40 40 41 43 45 47 49 50 50 51 52 54 55 56 55 55 55 55 54 54 52 51 50 48 47 47 45 43 42
42 42 44 49 46 41 42 41 37 33 32 30 29 24 22 19 20 29 39 39 39 41 41 41 42 42 41 42 44 46 48 52 52 53 54 54 55 57 58 57 57 57 57 56 54 52 49 48 47 45 43 43 42 41
43 42 41 44 46 44 42 45 37 34 31 29 28 25 23 21 19 17 28 35 37 39 42 43 42 39 37 42 47 50 52 53 55 55 56 58 59 60 59 59 59 59 58 57 55 52 49 48 46 43 43 42 40 37
Wind_Direction
345 340 334 328 327 337 4 296 251 252 212 189 269 237 224 219 221 235 248 261 283 283 291 311 314 309 320 327 330 333 333 330 323 317 313 300 294 294 289 286 285 283 268 266 268 271 278 300 304 285 296 311 306 309
6 8 5 3 4 66 209 205 263 252 281 142 224 214 200 207 183 235 259 276 285 291 299 308 312 321 331 340 333 327 325 320 312 314 312 300 289 294 293 280 289 281 298 283 287 287 312 304 296 305 319 319 315 305
25 41 66 99 221 259 194 231 248 98 114 211 210 195 206 211 198 241 262 280 285 291 295 305 312 296 294 313 331 315 317 321 315 321 305 304 290 288 294 290 286 286 299 291 285 292 300 318 315 312 311 304 309 317
44 65 87 112 107 294 268 26 76 154 191 203 188 198 208 212 205 249 276 277 307 331 319 324 311 297 306 334 42 60 332 332 329 323 305 298 298 296 285 294 291 286 294 291 286 296 296 292 306 299 302 320 309 305
60 74 79 93 128 164 111 146 171 173 198 192 186 196 199 209 155 351 298 287 304 320 335 322 274 298 302 342 358 8 344 332 329 324 316 309 310 305 296 291 284 292 289 283 281 280 280 285 298 300 307 302 285 292
72 79 91 105 130 141 148 155 170 171 161 192 201 205 223 227 113 321 297 281 296 278 307 319 300 301 311 328 340 346 342 336 336 333 327 322 320 311 299 289 289 289 286 289 281 284 280 283 293 299 306 324 296 286
74 80 85 102 118 132 148 147 173 129 171 194 189 97 39 316 307 303 311 317 320 286 293 302 297 328 322 323 318 318 325 324 324 327 327 327 321 315 306 294 279 287 282 281 280 284 277 283 287 302 305 308 311 283
9 53 85 92 100 118 133 129 99 108 75 75 75 67 49 24 359 328 323 23 327 296 299 321 318 325 335 340 337 332 326 322 323 322 325 323 328 323 313 302 295 291 282 274 267 267 262 271 280 283 280 288 301 305
43 36 50 62 68 65 83 84 84 82 79 78 71 50 285 296 320 330 5 358 309 344 341 334 330 336 343 344 336 332 330 327 331 226 228 214 223 224 245 249 263 306 295 272 271 270 266 267 272 270 262 279 294 302
49 48 47 50 61 63 63 71 73 73 69 177 201 268 303 255 242 240 296 308 299 311 334 343 353 346 345 345 340 329 251 230 228 224 194 190 233 246 244 242 234 218 203 254 257 260 259 256 262 258 237 258 273 280
43 45 48 51 56 60 65 68 54 51 189 112 360 352 49 330 327 326 328 327 319 331 355 354 12 30 203 214 213 193 200 198 198 186 179 177 147 203 264 253 215 199 198 204 222 245 257 256 255 253 256 262 275 274
71 42 19 17 25 26 32 246 214 25 33 33 42 44 25 360 337 333 331 332 340 327 317 47 250 206 205 193 205 202 198 191 191 214 152 148 278 290 290 279 212 178 189 189 229 254 257 262 257 252 259 271 289 291
337 177 180 254 289 305 294 257 109 83 116 169 147 139 147 149 170 181 202 208 199 185 196 201 213 207 206 196 211 205 196 174 217 174 170 94 318 318 316 304 328 95 140 297 262 260 262 263 256 266 268 296 297 287
310 288 262 299 293 275 278 282 244 142 156 150 159 157 149 151 161 155 165 178 194 207 221 223 220 215 214 224 221 217 203 193 203 184 139 287 344 332 15 342 24 38 59 28 255 253 262 245 254 268 288 311 322 297
333 317 324 314 302 293 288 287 279 121 135 156 155 163 161 173 180 187 193 212 211 212 215 211 207 199 210 221 215 233 239 190 175 161 200 280 311 333 56 93 356 32 49 2 237 260 300 294 279 290 299 314 322 315
323 338 357 328 318 310 311 319 350 5 36 101 172 195 190 189 205 212 213 213 231 239 244 217 224 222 210 243 249 250 249 252 218 251 266 281 304 324 324 318 126 204 296 274 293 333 301 259 274 311 319 319 322 326
349 3 333 317 317 318 327 336 332 340 331 327 305 345 168 230 222 227 243 243 275 269 268 266 266 264 274 308 273 307 328 330 325 334 321 312 306 297 301 309 306 287 320 350 342 339 330 313 306 316 314 316 321 325
41 14 324 319 322 331 337 340 339 340 338 326 300 289 312 291 272 269 290 307 314 284 287 284 283 291 300 302 322 320 327 323 324 327 326 318 317 323 329 321 318 320 321 324 335 343 337 325 319 321 319 320 319 318
34 25 21 348 347 342 334 338 344 339 332 324 326 309 298 294 297 297 305 317 320 310 308 304 296 299 302 312 316 320 326 331 334 338 335 333 333 335 333 330 325 318 314 319 326 322 318 316 316 322 326 326 320 318
31 24 13 4 4 355 342 334 337 331 335 333 323 318 315 307 303 301 300 307 311 307 304 303 304 309 312 319 322 324 328 332 329 325 327 332 336 329 330 329 327 320 315 309 313 335 341 341 348 352 355 353 351 340
37 39 28 24 17 15 0 347 336 332 323 322 316 314 311 309 305 307 306 311 302 300 303 310 314 317 323 328 328 329 329 328 328 331 330 321 324 330 326 323 319 315 309 300 299 348 17 23 22 26 36 32 54 95
39 32 36 34 39 31 21 11 354 335 329 318 310 311 309 310 309 311 314 310 307 309 311 315 318 322 325 324 326 329 328 328 327 325 325 328 330 329 328 324 321 320 321 318 314 317 334 346 340 345 349 356 16 35
31 36 42 48 47 46 36 17 12 8 346 328 318 313 311 309 310 317 308 311 318 316 317 317 319 322 323 324 325 326 327 325 324 323 324 325 325 327 326 324 325 326 327 326 327 332 333 335 334 335 338 345 353 359
38 44 42 41 40 40 25 22 3 356 346 338 326 319 316 317 313 308 310 314 315 318 319 319 321 320 320 321 320 320 320 322 322 321 323 323 321 320 316 321 330 332 330 327 327 326 325 324 326 328 331 334 339 346
34 36 37 34 35 29 23 13 6 357 346 335 326 318 315 315 307 304 303 306 311 314 318 319 319 318 319 320 321 322 325 324 322 319 319 320 321 320 318 323 330 329 328 326 325 325 326 325 325 325 330 332 333 339
28 32 31 27 26 22 16 5 1 351 338 331 325 317 313 306 304 300 301 306 309 314 317 317 317 318 320 322 322 323 323 324 328 330 329 326 325 324 325 325 323 323 327 328 325 322 320 320 321 324 326 328 329 329
23 23 26 28 17 14 13 11 2 360 353 344 333 321 313 305 302 305 308 313 310 314 318 319 322 323 324 326 328 328 328 331 334 338 346 344 341 338 334 328 321 317 317 318 319 319 319 318 317 318 318 319 320 320
23 21 13 12 16 18 13 13 14 13 9 5 353 347 332 326 316 314 311 311 313 316 320 323 324 326 327 329 328 327 329 329 333 335 338 333 331 333 328 321 316 312 312 312 313 312 312 312 312 311 308 305 302 305
17 17 15 14 15 17 21 19 18 21 17 6 3 356 345 335 320 316 316 317 319 321 321 321 322 325 326 327 330 332 332 331 327 325 323 320 319 318 317 314 312 310 310 309 309 309 307 304 300 297 294 292 293 302
15 19 13 14 13 15 21 24 11 5 7 10 10 3 352 336 322 320 319 318 319 320 321 324 325 325 322 321 322 325 328 330 330 325 318 317 314 310 312 314 314 311 310 310 309 307 308 306 304 305 307 311 311 309
17 17 14 15 13 15 11 7 5 10 18 30 34 29 19 10 345 323 315 311 313 316 319 318 321 324 324 324 323 320 321 326 326 324 321 317 314 313 312 310 311 312 310 307 307 305 305 304 300 299 299 301 306 311
15 14 12 10 10 13 12 19 18 24 27 30 32 40 36 25 6 342 322 316 311 311 313 316 316 315 320 325 326 325 321 318 319 321 322 320 317 315 313 310 308 308 309 309 305 300 297 298 296 297 299 300 302 306
11 11 11 11 13 16 18 15 22 23 26 30 35 41 41 34 25 29 356 337 330 322 313 310 313 319 323 325 326 326 325 324 322 323 321 321 321 320 320 318 315 311 310 309 307 305 302 302 302 303 304 306 309 315